Location: Newark
(15.4608°S, 41.1635°W)
Time: 07:34:06
(UTC+00:00)

Transit 4A - Pass Details

Date: 06 March 2021
Orbit: 869 x 975 km, 66.8° (Epoch: 22 April)

Event Time Altitude Azimuth Distance (km) Brightness Sun altitude
Rises 00:12:24 0° 316° (NW) 3,444 - -44.3°
Reaches altitude 10° 00:15:11 10° 305° (NW) 2,509 - -44.9°
Maximum altitude 00:20:07 29° 246° (WSW) 1,542 - -46.0°
Drops below altitude 10° 00:25:09 10° 186° (S) 2,538 - -47.1°
Sets 00:27:59 0° 175° (S) 3,492 - -47.7°
